Location: Bennemühlen
(52.5740°N, 9.7135°E)
Time: 02:58:11
(UTC+00:00)

Vanguard 2 Rocket - Pass Details

Date: 16 February 2026
Orbit: 553 x 3287 km, 32.9° (Epoch: 5 March)

Event Time Altitude Azimuth Distance (km) Brightness Sun altitude
Rises 13:35:12 0° 238° (WSW) 6,991 12.5 20.3°
Reaches altitude 10° 13:41:08 10° 229° (SW) 5,661 12.7 19.8°
Maximum altitude 13:53:33 29° 180° (S) 3,402 10.9 18.7°
Drops below altitude 10° 14:02:00 10° 126° (SE) 3,786 10.1 18.0°
Sets 14:05:03 0° 114° (ESE) 4,415 10.3 17.7°
